STARLINK-33793, 64165

Orbit data source: Space-Track

STARLINK-33793, 64165 is a payload satellite owned by SpaceX/Seattle (US) in SSO that was launched on Tue, 27 May 2025 UTC via an FALCON 9 launch vehicle from the Air Force Western Test Range (AFWTR). Payload-class satellites include a variety of spacecraft equipped with specific instruments for various scientific and technological missions. These include communications satellites like Starlink; space stations such as the ISS; scientific satellites like the Hubble; Earth observation satellites from companies like Planet Labs, Umbra, and HawkEye 360; GPS; miniature CubeSats for education and research; and military/defense satellites.

Loading next visibility...
Identifier
64165, 2025-112V
Orbit
SSO
Country
Flag of USUS
Related business
Manufacturer
SpaceX/Seattle
Mission
Operational Commercial Communications
Bus & Motor
STARLINK V2MO, Unknown motor
Mass
575 kg wet, ~530 kg dry
Launch date (UTC)
2025-05-27 (1 year ago)
Launch vehicle
FALCON 9
Launch site
Air Force Western Test Range (AFWTR)
Object type
Payload
Rocket body
Debris
Shape & HBR
Box + 1 Pan, 17.7 m
Radar Cross Section
41.120 m², Large (>1 m²)

Expand to show TLE details & history
Last TLE update: 1 day ago

TLE from 1 day ago
0 STARLINK-33793
1 64165U 25112V   26237.09337707  .00013789  00000-0  42861-3 0  9991
2 64165  97.2838 284.5823 0001299  42.4288 317.7055 15.33449067 68703
Epoch: 2026-08-25T02:14Z
TLE epoch observation values (Epoch: 2026-08-25T02:14:27.778Z)
Latitude
-0.00005°
Longitude
-82.39911°
Altitude
467.985 km
Speed
7.633 km/s
True Right ascension
18h 58m 19s
True Declination
0° 00' 00"
Sunlit
Object was in full shadow at epoch
Visualization orbit readout
Latitude
Unknown
Longitude
Unknown
Altitude
Unknown
Speed
Unknown
Apparent Right ascension
Unknown
Apparent Declination
Unknown
Sunlit
N/A
Visualization observer readout
Local Sidereal Time
23:18:42
Azimuth
Unknown
Elevation
Unknown
Doppler factor
Unknown
Orbital elements
Apogee altitude
463.362 km
Perigee altitude
461.585 km
Semi-major axis
6,840.611 km
Eccentricity
0.00013
Inclination
97.2838°
RAAN
284.5823°
Arg. of periapsis
42.4288°
True anomaly
317.69548°
Mean anomaly
317.7055°
Eccentric anomaly
317.70049°
Mean motion
3.8362 °/min
Orbital period
93.84 mins
BSTAR
0.00042861
Loading maneuver chart data...
Computing Atmospheric mass density...
Loading historical data...
Loading historical data...
Loading historical data...
Loading historical data...
Loading historical data...
Loading historical data...
Loading historical data...

Documentation

Showing up to 5 results
|